TimeCST,TemperatureF,Dew PointF,Humidity,Sea Level PressureIn,VisibilityMPH,Wind Direction,Wind SpeedMPH,Gust SpeedMPH,PrecipitationIn,Events,Conditions,WindDirDegrees,DateUTC
12:56 AM,43.0,39.0,86,30.32,10.0,Calm,Calm,-,N/A,,Overcast,0,2013-12-28 06:56:00
1:56 AM,45.0,41.0,86,30.30,10.0,NW,5.8,-,N/A,,Overcast,310,2013-12-28 07:56:00
2:56 AM,45.0,39.0,80,30.29,10.0,NNE,3.5,-,N/A,,Overcast,30,2013-12-28 08:56:00
3:56 AM,44.1,41.0,89,30.26,10.0,Calm,Calm,-,0.00,,Overcast,0,2013-12-28 09:56:00
4:56 AM,45.0,39.9,82,30.27,10.0,Calm,Calm,-,N/A,,Overcast,0,2013-12-28 10:56:00
5:56 AM,46.0,36.0,68,30.27,10.0,Calm,Calm,-,N/A,,Overcast,0,2013-12-28 11:56:00
6:56 AM,44.1,36.0,73,30.24,10.0,NE,3.5,-,N/A,,Mostly Cloudy,50,2013-12-28 12:56:00
7:56 AM,43.0,37.0,80,30.25,10.0,Calm,Calm,-,N/A,,Mostly Cloudy,0,2013-12-28 13:56:00
8:56 AM,46.0,37.9,73,30.25,10.0,Calm,Calm,-,N/A,,Mostly Cloudy,0,2013-12-28 14:56:00
9:56 AM,48.0,35.1,61,30.25,10.0,Calm,Calm,-,N/A,,Overcast,0,2013-12-28 15:56:00
10:56 AM,51.1,32.0,48,30.23,10.0,Calm,Calm,-,N/A,,Mostly Cloudy,0,2013-12-28 16:56:00
11:56 AM,53.1,33.1,47,30.19,10.0,Calm,Calm,-,N/A,,Overcast,0,2013-12-28 17:56:00
12:56 PM,54.0,33.1,45,30.14,10.0,Calm,Calm,-,N/A,,Mostly Cloudy,0,2013-12-28 18:56:00
1:56 PM,54.0,28.9,38,30.10,10.0,Calm,Calm,-,N/A,,Overcast,0,2013-12-28 19:56:00
2:56 PM,55.0,30.0,38,30.09,10.0,Calm,Calm,-,N/A,,Overcast,0,2013-12-28 20:56:00
3:56 PM,54.0,30.0,40,30.07,10.0,Calm,Calm,-,N/A,,Overcast,0,2013-12-28 21:56:00
4:56 PM,52.0,32.0,47,30.06,10.0,Calm,Calm,-,N/A,,Overcast,0,2013-12-28 22:56:00
5:56 PM,46.9,34.0,61,30.05,10.0,Calm,Calm,-,N/A,,Mostly Cloudy,0,2013-12-28 23:56:00
6:56 PM,43.0,35.1,74,30.05,10.0,Calm,Calm,-,N/A,,Mostly Cloudy,0,2013-12-29 00:56:00
7:56 PM,42.1,35.1,76,30.03,10.0,Calm,Calm,-,N/A,,Mostly Cloudy,0,2013-12-29 01:56:00
8:56 PM,41.0,35.1,79,30.03,10.0,Calm,Calm,-,N/A,,Mostly Cloudy,0,2013-12-29 02:56:00
9:56 PM,41.0,36.0,82,30.02,10.0,Calm,Calm,-,N/A,,Mostly Cloudy,0,2013-12-29 03:56:00
10:56 PM,41.0,36.0,82,30.01,10.0,Calm,Calm,-,N/A,,Scattered Clouds,0,2013-12-29 04:56:00
11:56 PM,41.0,35.1,79,30.01,10.0,Calm,Calm,-,N/A,,Overcast,0,2013-12-29 05:56:00